Find OneWeb SL0594

NORAD ID: 54660 Int'l Des: 2022-166 Owner: ONEWEBN Country: UK Constellation: oneweb operational
LEOCIRCULARPOLARONEWEB_TYPE

实时位置

正在加载3D地球...

关于 OneWeb SL0594

正在加载描述...

即将过境

Passes for default location (London). Set your location on the main map for personalized predictions.

高度历史

Loading altitude history...

两行轨道根数

1 54660U 22166U 26121.12038566 -.00000023 00000-0 -88373-4 0 9991
2 54660 87.9221 253.3625 0001839 97.6804 262.4539 13.21824336165346
Epoch: May 1, 2026 • Age: 10 hours

当前状态

高度 1191.0 km
速度 7.26 km/s
星下点 -33.41°S, 19.45°E
发射日期 Dec 8, 2022
运行时间 3.3 years
类型 internet

技术详情

分类 Payload
质量 148.00 kg
干质量 140.00 kg
总质量 148.00 kg
长度 1.30 m
直径 1.00 m
跨度 5.00 m
形状 Trapezoid+2 pan
制造商 ONEWUS
平台类型 ARROW
阶段状态 In Orbit
所有者/国家 ONEWEBN/UK

Most Searched